Location: Arpaise
(41.0333°N, 14.7333°E)
Time: 22:04:59
(UTC+00:00)

Cosmos 846 Rocket - Pass Details

Date: 24 January 2021
Orbit: 948 x 991 km, 82.9° (Epoch: 06 March)

Event Time Altitude Azimuth Distance (km) Brightness Sun altitude
Rises 18:18:43 0° 194° (SSW) 3,665 8.7 -24.5°
Reaches altitude 10° 18:21:15 10° 196° (SSW) 2,715 8.1 -25.0°
Maximum altitude 18:27:26 67° 279° (W) 1,047 5.8 -26.1°
Drops below altitude 10° 18:33:35 10° 2° (N) 2,703 7.8 -27.3°
Sets 18:36:07 0° 5° (N) 3,647 8.4 -27.8°
